STARLINK-11443 [DTC] (62512 NORAD) Tracking and Keplerian Element Data

This shows tracking and keplerian element data for the satellite.

Feedback or suggestion? Click here.




ElementValue
Catalog62512
NameSTARLINK-11443 [DTC]
Epoch Orbit542
Epoch Day35.14463848
Epoch Year2025
RAAN314.3092
Inclination42.9932
Eccentricity9.93E-05
Argument of Perigee11.2033
Mean Anonmoly348.8859
Mean Motion15.77855133
Decay Rate3.603E-05
L11 62512U 25004B 25035.14463848 .00003603 00000+0 23560-4 0 9991
L22 62512 42.9932 314.3092 0000993 11.2033 348.8859 15.77855133 5421



Live tracking and technical data element details for STARLINK-11443 [DTC] (NORAD 62512). STARLINK-11443 [DTC] can be tracked NOW for your location showing map with azimuth and elevation plus other details from your city location.







IsCatalogInMostPopularTable: catalog: 62512, numindb: 16
Update: records affected: 1



GetName: 62512 STARLINK-11443 [DTC]

Hit Count: updated at: Mon, 19 May 2025 03:25:04 GMT